| time (UTC) | temp C | wind direction | speed KPH | gust KPH | rain 1hr cm | rain 24hr cm | rain mn cm | humidity % | barometer mb |
| 20260505004040 | 11 | 28 | 6.4 | 16.1 | 0.00 | 0.00 | 0.00 | 1 | 1013.3 |
| 20260505003018 | 11 | 44 | 8.0 | 20.9 | 0.00 | 0.00 | 0.00 | 1 | 1013.3 |
| 20260505002025 | 11 | 58 | 8.0 | 20.9 | 0.00 | 0.00 | 0.00 | 1 | 1013.3 |
| 20260505001006 | 11 | 50 | 6.4 | 17.7 | 0.00 | 0.00 | 0.00 | 1 | 1013.2 |
| 20260504235936 | 11 | 70 | 6.4 | 19.3 | 0.00 | 0.00 | 0.00 | 1 | 1013.5 |
| 20260504234943 | 11 | 59 | 8.0 | 19.3 | 0.00 | 0.00 | 0.00 | 1 | 1013.6 |
| 20260504233954 | 11 | 78 | 6.4 | 17.7 | 0.00 | 0.00 | 0.00 | 1 | 1013.6 |
| 20260504232951 | 11 | 82 | 6.4 | 17.7 | 0.00 | 0.00 | 0.00 | 1 | 1013.6 |
| 20260504230737 | 11 | 72 | 8.0 | 19.3 | 0.00 | 0.00 | 0.00 | 1 | 1013.7 |
| 20260504225716 | 11 | 94 | 6.4 | 19.3 | 0.00 | 0.00 | 0.00 | 1 | 1013.6 |
| 20260504223613 | 11 | 99 | 8.0 | 17.7 | 0.00 | 0.00 | 0.00 | 1 | 1013.6 |
| 20260504222614 | 11 | 57 | 6.4 | 19.3 | 0.00 | 0.00 | 0.00 | 1 | 1013.7 |
| 20260504221623 | 11 | 78 | 8.0 | 19.3 | 0.00 | 0.00 | 0.00 | 1 | 1013.7 |
| 20260504220618 | 11 | 88 | 9.7 | 19.3 | 0.00 | 0.00 | 0.00 | 1 | 1013.7 |
| 20260504214451 | 12 | 76 | 6.4 | 19.3 | 0.00 | 0.00 | 0.00 | 1 | 1013.9 |
| 20260504213446 | 11 | 83 | 4.8 | 17.7 | 0.00 | 0.00 | 0.00 | 1 | 1013.9 |
| 20260504212413 | 11 | 84 | 6.4 | 14.5 | 0.00 | 0.00 | 0.00 | 1 | 1013.9 |
| 20260504210305 | 11 | 74 | 6.4 | 20.9 | 0.00 | 0.00 | 0.00 | 1 | 1013.8 |
| 20260504205234 | 11 | 96 | 6.4 | 20.9 | 0.00 | 0.00 | 0.00 | 1 | 1013.8 |
| 20260504204245 | 12 | 97 | 6.4 | 14.5 | 0.00 | 0.00 | 0.00 | 1 | 1013.9 |
| 20260504203233 | 12 | 59 | 4.8 | 12.9 | 0.00 | 0.00 | 0.00 | 1 | 1013.9 |
| 20260504202248 | 12 | 62 | 4.8 | 17.7 | 0.00 | 0.00 | 0.00 | 1 | 1013.9 |
| 20260504201236 | 12 | 82 | 4.8 | 17.7 | 0.00 | 0.00 | 0.00 | 1 | 1013.9 |
| 20260504200248 | 12 | 76 | 4.8 | 14.5 | 0.00 | 0.00 | 0.00 | 1 | 1013.7 |
| 20260504195305 | 12 | 87 | 3.2 | 14.5 | 0.00 | 0.00 | 0.00 | 1 | 1013.6 |
| 20260504194323 | 12 | 84 | 6.4 | 16.1 | 0.00 | 0.00 | 0.00 | 1 | 1013.5 |
| 20260504193325 | 12 | 55 | 4.8 | 16.1 | 0.00 | 0.00 | 0.00 | 1 | 1013.5 |
| 20260504192304 | 12 | 79 | 4.8 | 16.1 | 0.00 | 0.00 | 0.00 | 1 | 1013.5 |
| 20260504191259 | 12 | 91 | 4.8 | 16.1 | 0.00 | 0.00 | 0.00 | 1 | 1013.4 |
| 20260504190235 | 12 | 69 | 4.8 | 12.9 | 0.00 | 0.00 | 0.00 | 1 | 1013.3 |
| 20260504185245 | 12 | 54 | 4.8 | 12.9 | 0.00 | 0.00 | 0.00 | 1 | 1013.3 |
| 20260504184243 | 12 | 80 | 4.8 | 12.9 | 0.00 | 0.00 | 0.00 | 1 | 1013.2 |
| 20260504183259 | 13 | 55 | 3.2 | 9.7 | 0.00 | 0.00 | 0.00 | 1 | 1013.3 |
| 20260504182240 | 13 | 92 | 3.2 | 9.7 | 0.00 | 0.00 | 0.00 | 1 | 1013.2 |
| 20260504181229 | 13 | 85 | 3.2 | 14.5 | 0.00 | 0.00 | 0.00 | 1 | 1013.2 |
| 20260504180226 | 13 | 63 | 4.8 | 14.5 | 0.00 | 0.00 | 0.00 | 1 | 1013.3 |
| 20260504175211 | 13 | 35 | 4.8 | 16.1 | 0.00 | 0.00 | 0.00 | 1 | 1013.2 |
| 20260504174200 | 13 | 38 | 6.4 | 16.1 | 0.00 | 0.00 | 0.00 | 1 | 1013.2 |
| 20260504173218 | 13 | 41 | 4.8 | 14.5 | 0.00 | 0.00 | 0.00 | 1 | 1013.2 |
| 20260504172218 | 13 | 31 | 6.4 | 14.5 | 0.00 | 0.00 | 0.00 | 1 | 1013.2 |
| 20260504150623 | 16 | 44 | 6.4 | 14.5 | 0.00 | 0.00 | 0.00 | 1 | 1013.1 |
| 20260504130214 | 15 | 49 | 4.8 | 16.1 | 0.00 | 0.00 | 0.00 | 1 | 1013.4 |
| 20260504110702 | 13 | 52 | 4.8 | 16.1 | 0.00 | 0.00 | 0.00 | 1 | 1013.7 |
| 20260504100421 | 13 | 38 | 4.8 | 14.5 | 0.00 | 0.00 | 0.00 | 1 | 1013.6 |
| 20260504081124 | 13 | 44 | 3.2 | 9.7 | 0.00 | 0.00 | 0.00 | 1 | 1012.8 |
| 20260504050640 | 12 | 268 | 3.2 | 9.7 | 0.00 | 0.00 | 0.00 | 1 | 1011.1 |
| 20260504045657 | 11 | 267 | 3.2 | 9.7 | 0.00 | 0.00 | 0.00 | 1 | 1010.8 |
| 20260504044649 | 11 | 271 | 1.6 | 8.0 | 0.00 | 0.00 | 0.00 | 1 | 1010.6 |
| 20260504043704 | 12 | 271 | 3.2 | 8.0 | 0.00 | 0.00 | 0.00 | 1 | 1010.6 |
| 20260504040410 | 12 | 263 | 3.2 | 9.7 | 0.00 | 0.00 | 0.00 | 1 | 1010.5 |
| 20260504035415 | 12 | 270 | 3.2 | 9.7 | 0.00 | 0.00 | 0.00 | 1 | 1010.5 |
| 20260504032030 | 12 | 267 | 3.2 | 11.3 | 0.00 | 0.00 | 0.00 | 1 | 1010.5 |
| 20260504031050 | 12 | 266 | 4.8 | 11.3 | 0.00 | 0.00 | 0.00 | 1 | 1010.5 |
| 20260504030037 | 12 | 246 | 4.8 | 11.3 | 0.00 | 0.00 | 0.00 | 1 | 1010.5 |
| 20260504025004 | 12 | 248 | 4.8 | 11.3 | 0.00 | 0.00 | 0.00 | 1 | 1010.5 |
| 20260504024015 | 13 | 262 | 4.8 | 9.7 | 0.00 | 0.00 | 0.00 | 1 | 1010.4 |
| 20260504021814 | 13 | 258 | 1.6 | 9.7 | 0.00 | 0.00 | 0.00 | 1 | 1010.2 |
| 20260504020826 | 13 | 257 | 3.2 | 9.7 | 0.00 | 0.00 | 0.00 | 1 | 1010.2 |
| 20260504015826 | 13 | 259 | 3.2 | 9.7 | 0.00 | 0.05 | 0.00 | 1 | 1010.2 |
| 20260504013704 | 13 | 263 | 3.2 | 9.7 | 0.00 | 0.08 | 0.00 | 1 | 1010.3 |
| 20260504012654 | 13 | 252 | 3.2 | 9.7 | 0.00 | 0.10 | 0.00 | 1 | 1010.3 |
| 20260504011702 | 13 | 252 | 3.2 | 9.7 | 0.00 | 0.13 | 0.00 | 1 | 1010.3 |
| 20260504010646 | 13 | 251 | 3.2 | 11.3 | 0.00 | 0.15 | 0.00 | 1 | 1010.3 |
| 20260504005616 | 13 | 253 | 4.8 | 11.3 | 0.00 | 0.15 | 0.00 | 1 | 1010.2 |